Weather History for Chipley, FL

Change the Weather History Date:

Tuesday, January 1, 2013

  Actual Average (KMAI) Record (KMAI)
Temperature  
Mean Temperature 64 °F 50 °F  
Max Temperature 75 °F 61 °F 77 °F (2006)
Min Temperature 53 °F 39 °F 24 °F (2001)
Degree Days  
Heating Degree Days 1    
Month to date heating degree days  
Since 1 July heating degree days  
Cooling Degree Days 0    
Month to date cooling degree days  
Year to date cooling degree days  
Growing Degree Days 14 (Base 50)    
Moisture  
Dew Point 60 °F    
Average Humidity 86    
Maximum Humidity 100    
Minimum Humidity 69    
Precipitation  
Precipitation 0.00 in 0.18 in 1.20 in (2006)
Month to date precipitation 0.18  
Year to date precipitation 0.18  
Sea Level Pressure  
Sea Level Pressure 30.01 in    
Wind  
Wind Speed 9 mph (SSW)    
Max Wind Speed 18 mph    
Max Gust Speed 25 mph    
Visibility 9 miles    
Events      
T = Trace of Precipitation, MM = Missing Value Source: NWS Daily Summary

Daily Weather History Graph

Daily Weather History Graph

Search for Another Location

Airport:

Trip Planner

Search our weather history database for the weather conditions in past years. The results will help you decide how hot, cold, wet, or windy it might be!

Date:

Astronomy

Jan. 01, 2013 Rise Set
Actual Time 6:40 AM CST 4:52 PM CST
Civil Twilight 6:13 AM CST 5:18 PM CST
Nautical Twilight 5:43 AM CST 5:48 PM CST
Astronomical Twilight 5:14 AM CST 6:18 PM CST
Moon 9:03 PM CST (1/1) 9:09 AM CST (1/1)
Length of Visible Light 11h 05m
Length of Day
10h 12m
Waning Gibbous, 83% of the Moon is Illuminated
Jan 1
Waning Gibbous
Jan 4
Last Quarter
Jan 11
New
Jan 18
First Quarter
Jan 26
Full

Hourly Weather History & Observations

Time (CST) Temp. Dew Point Humidity Pressure Visibility Wind Dir Wind Speed Gust Speed Precip Events Conditions
12:15 AM 60.8 °F 55.4 °F 82% 30.06 in 5.0 mi South 6.9 mph - N/A   Clear
12:35 AM 60.8 °F 57.2 °F 88% 30.05 in 1.8 mi South 4.6 mph - N/A   Clear
12:55 AM 60.8 °F 57.2 °F 88% 30.04 in 2.5 mi SE 3.5 mph - N/A   Clear
1:15 AM 60.8 °F 57.2 °F 88% 30.03 in 5.0 mi South 8.1 mph - N/A   Clear
1:35 AM 60.8 °F 57.2 °F 88% 30.03 in 8.0 mi South 10.4 mph - N/A   Clear
1:55 AM 62.6 °F 59.0 °F 88% 30.03 in 10.0 mi South 10.4 mph - N/A   Clear
2:15 AM 62.6 °F 59.0 °F 88% 30.03 in 10.0 mi South 10.4 mph - N/A   Clear
2:35 AM 62.6 °F 59.0 °F 88% 30.02 in 10.0 mi South 10.4 mph 16.1 mph N/A   Clear
3:15 AM 64.4 °F 60.8 °F 88% 30.03 in 10.0 mi South 9.2 mph - N/A   Clear
3:35 AM 62.6 °F 60.8 °F 94% 30.02 in 10.0 mi South 9.2 mph - N/A   Clear
3:55 AM 62.6 °F 60.8 °F 94% 30.01 in 10.0 mi South 9.2 mph - N/A   Clear
4:15 AM 62.6 °F 60.8 °F 94% 30.01 in 10.0 mi South 9.2 mph 16.1 mph N/A   Clear
4:35 AM 62.6 °F 60.8 °F 94% 30.01 in 10.0 mi South 9.2 mph - N/A   Clear
5:15 AM 62.6 °F 60.8 °F 94% 30.00 in 10.0 mi South 12.7 mph - N/A   Clear
5:35 AM 62.6 °F 60.8 °F 94% 30.00 in 10.0 mi South 12.7 mph 18.4 mph N/A   Clear
5:55 AM 62.6 °F 60.8 °F 94% 30.00 in 10.0 mi South 12.7 mph - N/A   Clear
6:15 AM 62.6 °F 60.8 °F 94% 30.00 in 10.0 mi South 12.7 mph - N/A   Clear
6:35 AM 62.6 °F 60.8 °F 94% 30.00 in 10.0 mi South 12.7 mph - N/A   Clear
6:55 AM 62.6 °F 60.8 °F 94% 29.99 in 10.0 mi South 12.7 mph 19.6 mph N/A   Clear
7:15 AM 64.4 °F 62.6 °F 94% 30.00 in 9.0 mi South 11.5 mph 18.4 mph N/A   Clear
7:35 AM 64.4 °F 62.6 °F 94% 30.01 in 9.0 mi South 9.2 mph - N/A   Scattered Clouds
7:55 AM 64.4 °F 62.6 °F 94% 30.00 in 10.0 mi South 11.5 mph - N/A   Overcast
8:15 AM 66.2 °F 62.6 °F 88% 30.01 in 10.0 mi South 10.4 mph 16.1 mph N/A   Overcast
8:35 AM 66.2 °F 62.6 °F 88% 30.02 in 10.0 mi South 9.2 mph - N/A   Overcast
8:55 AM 68.0 °F 64.4 °F 88% 30.02 in 10.0 mi South 8.1 mph - N/A   Overcast
9:15 AM 69.8 °F 64.4 °F 83% 30.02 in 9.0 mi South 9.2 mph - N/A   Overcast
9:35 AM 69.8 °F 64.4 °F 83% 30.02 in 9.0 mi SSW 13.8 mph 20.7 mph N/A   Overcast
9:55 AM 69.8 °F 64.4 °F 83% 30.02 in 10.0 mi SSW 10.4 mph 24.2 mph N/A   Overcast
10:15 AM 71.6 °F 64.4 °F 78% 30.02 in 10.0 mi South 11.5 mph 19.6 mph N/A   Overcast
10:35 AM 71.6 °F 64.4 °F 78% 30.02 in 10.0 mi South 12.7 mph 25.3 mph N/A   Overcast
10:55 AM 73.4 °F 64.4 °F 73% 30.01 in 10.0 mi SSW 18.4 mph 25.3 mph N/A   Overcast
11:15 AM 73.4 °F 64.4 °F 73% 29.99 in 10.0 mi South 12.7 mph 24.2 mph N/A   Mostly Cloudy
11:35 AM 73.4 °F 64.4 °F 73% 29.98 in 10.0 mi South 13.8 mph 20.7 mph N/A   Overcast
11:55 AM 73.4 °F 64.4 °F 73% 29.97 in 10.0 mi SSW 10.4 mph 18.4 mph N/A   Mostly Cloudy
12:15 PM 73.4 °F 64.4 °F 73% 29.96 in 10.0 mi SSW 10.4 mph 17.3 mph N/A   Partly Cloudy
12:35 PM 75.2 °F 64.4 °F 69% 29.95 in 10.0 mi SSW 12.7 mph 19.6 mph N/A   Scattered Clouds
12:55 PM 75.2 °F 64.4 °F 69% 29.94 in 10.0 mi SSW 12.7 mph 19.6 mph N/A   Partly Cloudy
1:15 PM 75.2 °F 64.4 °F 69% 29.94 in 10.0 mi SSW 9.2 mph 19.6 mph N/A   Mostly Cloudy
1:35 PM 73.4 °F 64.4 °F 73% 29.93 in 10.0 mi SSW 11.5 mph 19.6 mph N/A   Overcast
1:55 PM 73.4 °F 64.4 °F 73% 29.93 in 10.0 mi SSW 11.5 mph 18.4 mph N/A   Overcast
2:15 PM 73.4 °F 64.4 °F 73% 29.93 in 10.0 mi SSW 12.7 mph 19.6 mph N/A   Overcast
2:35 PM 73.4 °F 64.4 °F 73% 29.93 in 10.0 mi SSW 10.4 mph 19.6 mph N/A   Overcast
3:15 PM 71.6 °F 64.4 °F 78% 29.93 in 10.0 mi SSW 10.4 mph 19.6 mph N/A   Overcast
3:35 PM 71.6 °F 64.4 °F 78% 29.93 in 9.0 mi SSW 11.5 mph 18.4 mph N/A   Overcast
3:55 PM 71.6 °F 66.2 °F 83% 29.93 in 9.0 mi South 11.5 mph 17.3 mph N/A   Overcast
4:15 PM 71.6 °F 64.4 °F 78% 29.93 in 8.0 mi South 10.4 mph 17.3 mph N/A   Overcast
4:35 PM 71.6 °F 64.4 °F 78% 29.93 in 8.0 mi SSW 9.2 mph 18.4 mph N/A   Overcast
4:55 PM 69.8 °F 64.4 °F 83% 29.96 in 3.0 mi West 10.4 mph 17.3 mph N/A   Overcast
5:15 PM 66.2 °F 64.4 °F 94% 29.96 in 5.0 mi SW 3.5 mph - N/A   Mostly Cloudy
5:35 PM 66.2 °F 64.4 °F 94% 29.96 in 10.0 mi West 3.5 mph - N/A   Overcast
5:55 PM 66.2 °F 64.4 °F 94% 29.97 in 5.0 mi North 4.6 mph - N/A   Overcast
6:15 PM 64.4 °F 64.4 °F 100% 29.98 in 7.0 mi NNW 4.6 mph - N/A   Overcast
6:35 PM 60.8 °F 59.0 °F 94% 30.00 in 5.0 mi NW 10.4 mph 17.3 mph N/A   Overcast
6:55 PM 59.0 °F 57.2 °F 94% 30.02 in 10.0 mi North 8.1 mph 16.1 mph N/A   Overcast
7:15 PM 57.2 °F 55.4 °F 94% 30.03 in 10.0 mi North 9.2 mph - N/A   Overcast
7:35 PM 57.2 °F 53.6 °F 88% 30.04 in 10.0 mi NNW 10.4 mph - N/A   Overcast
7:55 PM 57.2 °F 53.6 °F 88% 30.04 in 9.0 mi North 9.2 mph - N/A   Overcast
8:15 PM 55.4 °F 53.6 °F 94% 30.06 in 10.0 mi NNW 10.4 mph 16.1 mph N/A   Overcast
8:35 PM 55.4 °F 53.6 °F 94% 30.05 in 10.0 mi North 6.9 mph 17.3 mph N/A   Overcast
8:55 PM 55.4 °F 53.6 °F 94% 30.05 in 10.0 mi North 6.9 mph - N/A   Overcast
9:15 PM 55.4 °F 51.8 °F 88% 30.06 in 10.0 mi North 9.2 mph - N/A   Overcast
9:35 PM 55.4 °F 51.8 °F 88% 30.07 in 10.0 mi North 8.1 mph - N/A   Overcast
9:55 PM 55.4 °F 51.8 °F 88% 30.07 in 10.0 mi North 6.9 mph - N/A   Overcast
10:15 PM 55.4 °F 51.8 °F 88% 30.07 in 10.0 mi North 8.1 mph - N/A   Overcast
10:35 PM 55.4 °F 50.0 °F 82% 30.07 in 10.0 mi NNE 8.1 mph - N/A   Overcast
10:55 PM 55.4 °F 50.0 °F 82% 30.07 in 10.0 mi NNE 9.2 mph - N/A   Overcast
11:15 PM 55.4 °F 50.0 °F 82% 30.07 in 10.0 mi North 6.9 mph - N/A   Overcast
11:35 PM 53.6 °F 50.0 °F 88% 30.07 in 10.0 mi North 9.2 mph - N/A   Overcast
11:55 PM 53.6 °F 50.0 °F 88% 30.08 in 10.0 mi NNW 5.8 mph - N/A   Overcast